Regional Weather Roundup
Issued by NWS Midland/Odessa, TX

Skip options and go directly to product.
Home | Oldest Version | Previous Version | Current Version | All | Text Only | Save Text | Print | Product List | Glossary On

Skip product version selection by date and time.   
575
ASUS44 KMAF 311910
RWRMAF
MIDLAND AREA WEATHER ROUNDUP
NATIONAL WEATHER SERVICE MIDLAND TX
200 PM CDT TUE MAY 31 2016

...IN SOUTHWEST TEXAS AND SOUTHEAST NEW MEXICO...

CITY           SKY/WX    TMP DP  RH WIND       PRES   REMARKS
ALPINE         SUNNY     79  53  39 SW10G18   30.04F
ANDREWS        CLOUDY    74  56  53 S7        29.96F
ARTESIA        SUNNY     82  54  36 VRB3G15   29.92F
BIG SPRING     SUNNY     78  58  50 SW7       29.92F
CARLSBAD       SUNNY     85  50  29 E7G16     29.88F
DRYDEN           N/A     76  66  71 S12       29.91F
FORT STOCKTON  NOT AVBL
GUAD PASS      NOT AVBL
HOBBS          MOSUNNY   81  50  34 S8        29.96F
MARFA          SUNNY     77  55  46 S9G16     30.02F
MIDLAND AIRPK  CLOUDY    82  52  35 W8        29.93F
MIDLAND INTL   CLOUDY    80  53  39 S9        29.93F
ODESSA         CLOUDY    79  56  45 SW9       29.95F
PECOS          SUNNY     86  50  28 E3        29.88F
PRESIDIO       FAIR      80  58  47 CALM      29.91F
SEMINOLE       MOSUNNY   79  55  43 S5        29.95F
SNYDER           N/A     79  65  61 N7        29.91F
WINK           MOSUNNY   86  50  28 SE8       29.89F
$$
...OTHER STATIONS IN TEXAS...

CITY           SKY/WX    TMP DP  RH WIND       PRES   REMARKS
ABILENE        MOSUNNY   83  66  56 W9        29.86F
AMARILLO       MOSUNNY   73  52  47 NE13      30.00F
AUSTIN         CLOUDY    77  73  87 E6        29.85F
BROWNSVILLE    MOSUNNY   89  74  60 S16G26    29.82F
CORPUS CHRISTI PTSUNNY   88  75  65 S16G25    29.82F
DALLAS FTW     CLOUDY    84  68  58 S6        29.85S
DEL RIO        LGT RAIN  75  71  87 W18       29.91R
EL PASO        MOSUNNY   84  45  25 S8G17     29.93F
HOUSTON INT    PTSUNNY   87  68  52 SE8G20    29.87F
LUBBOCK        PTSUNNY   78  56  46 E7        29.95F
SAN ANGELO     CLOUDY    86  66  51 W8        29.87F
SAN ANTONIO    CLOUDY    80  73  79 E8        29.83F
WACO           CLOUDY    84  70  62 S12       29.85R
WICHITA FALLS  NOT AVBL
$$
...OTHER LOCATIONS IN NEW MEXICO...

CITY           SKY/WX    TMP DP  RH WIND       PRES   REMARKS
ALAMAGORDO     SUNNY     81  45  28 SW6       29.94F
ALBUQUERQUE    CLOUDY    75  43  31 VRB5      29.99F
CANNON AFB     MOSUNNY   74  52  46 E12       30.01F
CLOVIS         PTSUNNY   75  54  46 SE17      30.01F
HOLLOMAN AFB   MOSUNNY   81  46  28 S8        29.92F
ROSWELL        SUNNY     83  46  27 N8        29.92F
RUIDOSO        LGT RAIN  61  45  55 CALM      30.14R
SANTA FE       CLOUDY    76  29  17 S13G20    30.04F
TRUTH OR CONSE MOSUNNY   80  41  24 SE7       29.95F
TUCUMCARI      CLOUDY    80  50  34 E10G22    29.97F
$$

USA.gov is the U.S. government's official web portal to all federal, state and local government web resources and services.